CW4525 Weather Reports


Display with metric or nautical units.
time (UTC)temp
F
wind
direction
speed
MPH
gust
MPH
rain 1hr
in
rain 24hr
in
rain mn
in
humidity
%
barometer
mb
20260502194543 48 165 0.0 4.0 0.03 0.21 0.21 92 1006.1
20260502193044 48 153 3.0 7.0 0.03 0.20 0.20 91 1006.3
20260502191547 48 119 1.0 7.0 0.03 0.19 0.19 91 1006.2
20260502190047 48 102 0.0 1.0 0.04 0.19 0.19 91 1006.3
20260502184541 48 80 1.0 6.0 0.04 0.18 0.18 91 1006.4
20260502183040 48 54 1.0 3.0 0.04 0.17 0.17 91 1006.7
20260502181540 47 46 1.0 5.0 0.04 0.16 0.16 90 1006.8
20260502163036 50 184 0.0 5.0 0.00 0.11 0.11 84 1006.8
20260502161531 49 294 1.0 4.0 0.00 0.11 0.11 84 1006.8
20260502151548 48 167 2.0 5.0 0.00 0.11 0.11 89 1007.4
20260502123008 44 272 0.0 1.0 0.04 0.09 0.09 94 1008.4
20260502121507 43 272 0.0 4.0 0.04 0.09 0.09 94 1008.3
20260502114505 43 271 0.0 4.0 0.02 0.06 0.06 93 1008.3
20260502113005 43 271 1.0 4.0 0.01 0.05 0.05 93 1008.4
20260502111504 43 317 2.0 5.0 0.02 0.05 0.05 93 1007.9
20260502110002 43 343 5.0 7.0 0.03 0.05 0.05 93 1007.5
20260502104558 43 340 1.0 7.0 0.03 0.04 0.04 92 1007.5
20260502103105 43 15 2.0 6.0 0.04 0.04 0.04 92 1007.8
20260502101558 43 327 2.0 6.0 0.03 0.03 0.03 91 1007.9
20260502090110 44 265 1.0 2.0 0.00 0.00 0.00 87 1007.3
20260502071534 46 46 1.0 4.0 0.00 0.00 0.00 75 1007.8
20260502070045 46 278 0.0 2.0 0.00 0.00 0.00 74 1007.9
20260502064530 46 240 1.0 2.0 0.00 0.00 0.00 70 1008.0
20260502063037 46 240 2.0 5.0 0.00 0.00 0.00 68 1008.1
20260502061528 47 255 2.0 10.0 0.00 0.00 0.00 70 1008.4
20260502060027 46 196 5.0 10.0 0.00 0.00 0.00 63 1008.4
20260502054532 46 257 0.0 5.0 0.00 0.00 0.00 64 1008.4
20260502053024 46 255 0.0 2.0 0.00 0.00 0.00 62 1008.0
20260502051521 46 255 0.0 0.0 0.00 0.00 0.00 59 1007.6
20260502050035 46 255 0.0 1.0 0.00 0.00 0.00 63 1007.8
20260502044517 47 255 0.0 4.0 0.00 0.00 0.00 65 1007.9
20260502043019 47 323 0.0 0.0 0.00 0.00 0.00 61 1007.9
20260502041514 47 323 0.0 0.0 0.00 0.00 0.00 62 1007.5
20260502040012 47 323 0.0 0.0 0.00 0.00 0.00 63 1007.5
20260502034517 46 322 0.0 0.0 0.00 0.00 0.00 56 1007.7
20260502033012 46 322 0.0 0.0 0.00 0.00 0.00 59 1007.5
20260502031511 46 322 0.0 1.0 0.00 0.00 0.00 61 1007.6
20260502030011 47 325 0.0 0.0 0.00 0.00 0.00 59 1007.5
20260502024509 48 325 0.0 0.0 0.00 0.01 0.00 52 1007.5
20260502023010 48 325 0.0 0.0 0.00 0.01 0.00 48 1007.5
20260502021510 48 325 0.0 0.0 0.00 0.01 0.00 48 1007.5
20260502020008 49 325 0.0 0.0 0.00 0.01 0.00 50 1007.6
20260502014514 50 325 0.0 0.0 0.00 0.01 0.00 47 1007.5
20260502013007 50 326 0.0 0.0 0.00 0.01 0.00 45 1007.5
20260502011507 50 326 0.0 0.0 0.00 0.01 0.00 45 1007.5
20260502010008 51 326 0.0 0.0 0.00 0.01 0.00 44 1007.4
20260502004504 51 326 0.0 0.0 0.00 0.01 0.00 43 1007.1
20260502003003 51 326 0.0 0.0 0.00 0.01 0.00 43 1007.0
20260502001503 52 326 0.0 0.0 0.00 0.01 0.00 43 1006.8
20260502000001 53 326 0.0 0.0 0.00 0.01 0.00 41 1006.7
20260501234504 55 326 0.0 0.0 0.00 0.01 0.00 40 1006.4
20260501233002 55 325 3.0 6.0 0.00 0.01 0.00 37 1006.2
20260501231608 56 323 1.0 7.0 0.00 0.01 0.00 36 1005.9
20260501224613 56 285 5.0 10.0 0.00 0.01 0.00 35 1005.8
20260501223058 57 266 6.0 11.0 0.00 0.01 0.00 35 1005.8
20260501221600 57 300 8.0 18.0 0.00 0.01 0.00 34 1005.7
20260501220059 58 271 7.0 18.0 0.00 0.01 0.00 35 1005.7
20260501214558 58 244 5.0 16.0 0.00 0.01 0.00 34 1005.7
20260501213056 59 213 10.0 19.0 0.00 0.01 0.00 33 1005.4
20260501211555 59 283 9.0 16.0 0.00 0.01 0.00 33 1005.2
20260501210053 59 323 12.0 20.0 0.00 0.01 0.00 33 1004.9
20260501204556 59 234 7.0 14.0 0.00 0.01 0.00 33 1005.1
20260501203052 58 296 9.0 22.0 0.00 0.01 0.00 34 1005.0
20260501201556 59 325 9.0 19.0 0.00 0.01 0.00 33 1004.9
20260501200051 59 315 7.0 21.0 0.00 0.01 0.00 37 1004.9